Regional Weather Roundup
Issued by NWS Jackson, KY

Home | Current Version | Previous Version | Text Only | Print | Product List | Glossary Off
Versions: 1 2 3 4 5 6 7 8 9 10 11 12 13 14 15 16 17 18 19 20 21 22 23 24 25 26 27 28 29 30 31 32 33 34 35 36 37 38 39 40 41 42 43 44 45 46 47 48 49 50

000
ASUS43 KJKL 212119
RWRJKL

EAST KENTUCKY HOURLY WEATHER ROUNDUP
NATIONAL WEATHER SERVICE JACKSON KY
400 PM EST SUN DEC 21 2014

NOTE: "FAIR" INDICATES FEW OR NO CLOUDS BELOW 12,000 FEET WITH
NO SIGNIFICANT WEATHER AND/OR OBSTRUCTIONS TO VISIBILITY.

* THESE REPORTS ARE NOT UNDER NWS QUALITY CONTROL AND MAY NOT
  REPORT WEATHER SUCH AS PRECIPITATION AND FOG.

KYZ079-080-083-085-087-088-110-112-115-119-120-212200
...EASTERN KENTUCKY...

CITY           SKY/WX    TMP DP  RH WIND       PRES   REMARKS
JACKSON        SUNNY     44  26  49 VRB3      30.13F
LONDON         SUNNY     49  28  44 CALM      30.11F
SOMERSET*      MOSUNNY   46  27  46 E5        30.13S
MONTICELLO*    SUNNY     49  30  48 N8        30.14S
MIDDLESBORO*   SUNNY     50  34  54 S8        30.12F
HARLAN APT*    CLEAR     50  30  46 CALM      30.10F
BLACK MTN*       N/A     37  30  75 S1          N/A
PIKEVILLE APT* SUNNY     43  27  52 CALM      30.14F
BIG SANDY*     CLEAR     44  29  56 CALM      30.16F
MOREHEAD APT*  PTCLDY    41  27  56 E5        30.17F
$$

KYZ035-036-041-042-044-050-067-078-099-212200
...CENTRAL KENTUCKY...

CITY           SKY/WX    TMP DP  RH WIND       PRES   REMARKS
MT STERLING*   MOSUNNY   41  30  65 SE7       30.16F
FLEMING/MASON* SUNNY     36  28  75 NE8       30.18F WCI  29
DANVILLE*      SUNNY     41  30  65 E6        30.14F
RICHMOND*      CLEAR     45  28  53 E6        30.13S
LEXINGTON      MOSUNNY   42  28  57 CALM      30.15F
FRANKFORT      PTSUNNY   40  28  62 NE6       30.15F
$$

KYZ091>093-OHZ055-061-077-WVZ005-015-034-035-042-212200
...SOUTHERN OHIO/WEST VIRGINIA...

CITY           SKY/WX    TMP DP  RH WIND       PRES   REMARKS
COVINGTON      PTSUNNY   37  25  61 E7        30.17F WCI  32
COLUMBUS       MOCLDY    35  22  58 E7        30.21S WCI  29
DAYTON         CLOUDY    36  25  64 SE9       30.19F WCI  29
WILMINGTON     MOSUNNY   34  25  69 SE5       30.18F WCI  30
HUNTINGTON     MOSUNNY   42  28  57 N5        30.17F
CHARLESTON     MOSUNNY   45  26  47 N3        30.19S
PINEVILLE*     SUNNY     40  34  77 MISG      30.19F
BECKLEY        SUNNY     44  26  49 VRB7      30.14S
BLUEFIELD      SUNNY     43  30  60 S5        30.14F
$$

VAZ002-007-008-TNZ017-027-036-066-071-212200
...SOUTHWEST VIRGINIA/EAST TENNESSEE...

CITY           SKY/WX    TMP DP  RH WIND       PRES   REMARKS
WISE*          SUNNY     46  30  53 SE3       30.11S
JONESVILLE*    CLEAR     50  32  50 CALM      30.13F
ABINGDON*      SUNNY     50  35  55 E3        30.11F
BRISTOL        MOSUNNY   51  35  54 NE5       30.12F
KNOXVILLE      MOSUNNY   52  37  56 NW5       30.09F
OAK RIDGE      CLOUDY    50  33  52 CALM      30.12F
CROSSVILLE     CLOUDY    48  35  60 S5        30.10S
NASHVILLE      MOSUNNY   53  36  52 SE10      30.08F
$$

...KEY TO REMARKS...
VSB - VISIBILITY IN MILES
WCI - WIND CHILL INDEX
HX  - HEAT INDEX

$$


USA.gov is the U.S. government's official web portal to all federal, state and local government web resources and services.